Hourly Data Report for October 28, 2003

TORONTO CITY
ONTARIO

43°40'00.000" N
79°24'00.000" W
112.50 m
6158355
71508
XTO

Download Data

Hourly Data (October 2003)
Hourly Data Report for October 28, 2003
TIME
LST
Temp Definition
°C
Dew Point Definition
°C
Rel Hum Definition
%
Precip. Amount Definition
mm

Wind Dir Definition
10's deg

Wind Spd Definition
km/h
Visibility Definition
km
Stn Press Definition
kPa
Hmdx Definition


Wind Chill Definition


Weather Definition


00:00 4.1 1.3 82   LegendMM LegendMM LegendMM 99.48     LegendNANA
01:00 3.4 1.0 84   LegendMM LegendMM LegendMM 99.50     LegendNANA
02:00 3.0 1.3 89   LegendMM LegendMM LegendMM 99.51     LegendNANA
03:00 2.9 1.1 88   LegendMM LegendMM LegendMM 99.47     LegendNANA
04:00 2.7 1.4 91   LegendMM LegendMM LegendMM 99.52     LegendNANA
05:00 4.2 2.4 88   LegendMM LegendMM LegendMM 99.57     LegendNANA
06:00 5.0 3.2 88   LegendMM LegendMM LegendMM 99.56     LegendNANA
07:00 5.3 3.6 89   LegendMM LegendMM LegendMM 99.56     LegendNANA
08:00 5.4 4.3 93   LegendMM LegendMM LegendMM 99.57     LegendNANA
09:00 6.5 5.4 93   LegendMM LegendMM LegendMM 99.55     LegendNANA
10:00 8.4 6.4 87   LegendMM LegendMM LegendMM 99.55     LegendNANA
11:00 9.5 5.3 75   LegendMM LegendMM LegendMM 99.51     LegendNANA
12:00 9.2 5.0 75   LegendMM LegendMM LegendMM 99.44     LegendNANA
13:00 9.6 4.6 71   LegendMM LegendMM LegendMM 99.37     LegendNANA
14:00 10.2 5.0 70   LegendMM LegendMM LegendMM 99.32     LegendNANA
15:00 10.3 5.0 70   LegendMM LegendMM LegendMM 99.31     LegendNANA
16:00 10.5 5.0 69   LegendMM LegendMM LegendMM 99.25     LegendNANA
17:00 10.7 4.8 67   LegendMM LegendMM LegendMM 99.23     LegendNANA
18:00 10.4 4.8 68   LegendMM LegendMM LegendMM 99.28     LegendNANA
19:00 10.3 4.9 69   LegendMM LegendMM LegendMM 99.25     LegendNANA
20:00 10.7 4.9 67   LegendMM LegendMM LegendMM 99.20     LegendNANA
21:00 10.0 4.4 68   LegendMM LegendMM LegendMM 99.19     LegendNANA
22:00 9.5 5.2 75   LegendMM LegendMM LegendMM 99.13     LegendNANA
23:00 9.6 5.4 75   LegendMM LegendMM LegendMM 99.06     LegendNANA

Notes on Data Quality.

Legend

  • E = Estimated
  • M = Missing
  • NA = Not Available*
  • [empty] = Indicates an unobserved value
Date modified: